This demonstration page uses our WeatherBlox Daily Observations layout. Learn more.

Left ArrowRight Arrow

36.19886, -115.1175

Hourly Observations for September 23, 2020

Temp ( °F °C ) Dew Point ( °F °C ) Humidity (%) Winds ( mph kmh ) Pressure ( in mb ) Visibility ( mi km ) Precip ( " mm )
12:53 am 00:53 Clear 82 27.8 32 0 16 16 N 5 7 29.93 1014 10 16.0934 0 0
1:53 am 01:53 Clear 78 25.6 32 0 19 19 Calm 29.94 1014 10 16.0934 0 0
2:53 am 02:53 Clear 75 23.9 33 0.6 22 22 Calm 29.96 1014 10 16.0934 0 0
3:53 am 03:53 Clear 75 23.9 35 1.7 23 23 W 8 13 29.96 1015 10 16.0934 0 0
4:53 am 04:53 Clear 75 23.9 35 1.7 23 23 WSW 6 9 29.98 1015 10 16.0934 0 0
5:53 am 05:53 Clear 80 26.7 31 -0.6 17 17 WNW 3 6 29.99 1016 10 16.0934 0 0
6:53 am 06:53 Sunny 73 22.8 33 0.6 23 23 NNW 9 15 30.01 1016 10 16.0934 0 0
7:53 am 07:53 Sunny 78 25.6 32 0 19 19 NNW 7 11 30.03 1017 10 16.0934 0 0
8:53 am 08:53 Sunny 82 27.8 34 1.1 18 18 Calm 30.04 1017 10 16.0934 0 0
9:53 am 09:53 Sunny 87 30.6 32 0 14 14 Calm 30.04 1017 10 16.0934 0 0
10:53 am 10:53 Sunny 91 32.8 32 0 12 12 Calm 30.03 1017 10 16.0934 0 0
11:53 am 11:53 Sunny 92 33.3 32 0 12 12 SE 5 7 30.01 1016 10 16.0934 0 0
12:53 pm 12:53 Sunny 95 35 32 0 11 11 E 7 11 29.99 1016 10 16.0934 0 0
1:53 pm 13:53 Sunny 97 36.1 33 0.6 10 10 VRB 6 9 29.96 1015 10 16.0934 0 0
2:53 pm 14:53 Sunny 99 37.2 33 0.6 10 10 S 8 13 29.94 1014 10 16.0934 0 0
3:53 pm 15:53 Sunny 99 37.2 34 1.1 10 10 SE 7 11 29.92 1013 10 16.0934 0 0
4:53 pm 16:53 Sunny 99 37.2 33 0.6 10 10 SE 8 13 29.9 1013 10 16.0934 0 0
5:53 pm 17:53 Sunny 97 36.1 34 1.1 11 11 E 6 9 29.89 1012 10 16.0934 0 0
6:53 pm 18:53 Clear 94 34.4 34 1.1 12 12 E 5 7 29.9 1013 10 16.0934 0 0
7:53 pm 19:53 Clear 92 33.3 35 1.7 13 13 ENE 3 6 29.91 1013 10 16.0934 0 0
8:53 pm 20:53 Clear 88 31.1 37 2.8 16 16 WNW 6 9 29.92 1013 10 16.0934 0 0
9:53 pm 21:53 Clear 85 29.4 38 3.3 19 19 NNW 7 11 29.92 1013 10 16.0934 0 0
10:53 pm 22:53 Clear 83 28.3 36 2.2 19 19 NW 7 11 29.91 1013 10 16.0934 0 0
11:53 pm 23:53 Clear 82 27.8 37 2.8 20 20 SW 5 7 29.91 1013 10 16.0934 0 0

Powered by AerisWeather